Location: Bosdarros
(43.2167°N, 0.3667°W)
Time: 11:14:42
(UTC+00:00)

FENGYUN 1C DEB - Pass Details

Date: 25 October 2021
Orbit: 805 x 871 km, 98.8° (Epoch: 26 November)

Event Time Altitude Azimuth Distance (km) Brightness Sun altitude
Exits shadow 18:48:30 37° 109° (ESE) 1,231 ? -19.9°
Maximum altitude 18:49:52 46° 69° (ENE) 1,084 ? -20.1°
Drops below altitude 10° 18:54:54 10° 358° (N) 2,408 ? -21.0°
Sets 18:57:20 0° 352° (N) 3,351 ? -21.5°
